Wind_Speed
39 39 38 39 43 42 41 40 42 42 40 44 49 54 60 66 72 74 77 78 81 83 84 85 85 87 86 87 88 88 80 71 73 76 85 91 89 90 92 87 82 76 81 68 71
37 37 39 43 43 42 42 42 40 40 44 46 52 58 66 72 76 79 79 81 82 85 88 90 92 92 92 92 93 91 86 82 82 84 85 95 94 95 95 92 88 80 82 69 76
37 40 43 43 44 43 43 41 40 45 46 51 56 64 70 74 76 80 78 78 81 83 87 92 97 99 100 100 98 95 90 91 90 91 93 91 97 98 95 96 90 90 83 81 79
41 43 44 42 43 43 43 41 45 47 52 57 64 69 73 75 75 76 75 69 66 67 71 77 87 102 108 105 107 100 97 96 97 97 94 90 93 100 98 97 96 98 91 83 79
42 43 42 44 43 42 41 45 50 50 58 63 70 76 73 74 73 69 62 58 56 56 59 65 73 82 99 115 113 108 103 102 103 100 92 94 93 96 103 100 103 96 87 82 85
41 42 44 45 43 41 45 50 52 57 64 68 75 78 74 72 65 59 54 50 46 46 49 56 65 73 82 100 117 117 112 108 106 102 98 98 100 99 99 103 101 94 93 93 89
40 43 45 44 43 43 48 54 55 61 65 73 81 82 76 71 63 54 50 45 41 40 42 49 55 65 75 89 105 121 122 116 110 107 101 105 107 97 97 107 101 98 100 97 92
41 45 46 44 43 47 51 56 58 64 69 77 87 88 81 71 64 54 50 40 36 37 42 45 50 58 67 78 92 108 125 123 117 115 109 110 101 100 104 100 103 104 101 97 95
42 46 47 46 45 51 55 57 62 66 74 81 90 94 84 73 65 57 52 41 35 35 40 46 45 51 55 68 81 96 113 127 125 118 117 112 106 109 107 105 100 102 103 102 99
45 46 49 44 47 53 58 61 68 73 77 84 93 97 89 75 66 60 57 46 35 35 31 41 40 39 47 57 67 85 105 120 128 127 123 115 114 117 113 109 101 101 107 106 104
46 49 48 45 51 57 59 61 66 71 79 87 96 102 100 83 72 63 59 52 42 34 30 32 33 34 38 48 61 69 94 110 128 132 130 123 119 118 115 109 106 101 98 103 102
47 50 45 47 53 59 62 66 72 78 84 90 98 102 102 92 78 67 62 56 50 34 28 25 25 27 33 42 55 70 83 101 118 134 135 131 123 120 119 112 105 102 97 98 104
49 49 43 49 55 61 65 70 74 79 85 92 98 105 109 99 87 72 66 60 55 44 28 25 19 21 30 38 52 64 76 91 108 133 134 130 124 121 118 112 109 106 103 96 95
49 43 45 50 57 62 66 70 77 82 87 89 97 104 108 101 87 76 69 63 53 50 38 28 22 19 25 35 46 58 71 85 102 121 134 132 124 115 116 111 109 103 99 93 89
43 41 46 53 59 65 69 72 78 83 91 95 99 107 109 106 92 81 72 64 56 50 44 29 23 20 20 30 40 52 64 80 98 115 136 134 128 119 120 116 111 105 98 95 89
38 43 49 55 60 65 69 72 79 85 90 97 100 105 110 110 96 84 73 65 57 47 40 34 22 22 20 27 36 44 60 76 94 112 132 133 126 122 121 117 112 106 101 95 93
41 46 52 58 64 68 70 73 78 84 91 97 101 105 109 111 102 87 77 68 54 46 37 36 25 20 21 26 33 44 54 74 90 108 122 131 127 123 119 113 110 104 100 96 95
46 51 55 61 66 70 72 73 80 85 90 96 100 104 106 109 108 91 79 72 59 50 38 35 24 20 20 24 31 41 54 69 86 99 114 131 131 128 119 118 112 107 103 100 96
52 55 58 63 68 73 74 76 80 85 88 92 98 103 108 109 111 93 78 72 60 49 37 32 24 16 19 22 28 38 51 68 81 97 114 130 130 130 121 112 113 111 108 106 101
56 59 62 66 69 73 77 77 81 86 89 93 96 100 106 109 112 99 83 72 58 45 35 26 21 14 13 19 26 34 48 61 75 91 107 121 130 131 122 118 115 113 110 105 102
59 60 62 65 69 74 77 79 82 87 90 94 98 101 105 109 111 103 86 73 60 48 38 28 21 13 8 14 19 28 39 50 72 86 102 114 126 132 123 119 115 113 108 108 103
61 64 64 69 73 75 77 79 83 88 92 94 97 101 104 105 110 105 87 75 60 49 40 30 23 16 7 9 15 21 33 46 61 75 88 103 123 131 125 122 118 113 110 107 99
64 63 68 73 75 80 80 80 82 86 92 95 97 100 107 109 107 103 85 73 62 51 39 27 19 13 7 6 13 19 28 39 52 68 84 101 109 126 129 123 118 112 110 107 92
67 68 72 75 75 77 78 80 81 87 91 96 96 98 101 107 111 104 86 69 62 50 40 29 18 12 8 4 8 16 25 35 51 61 70 83 106 117 130 127 119 115 113 102 100
74 76 77 81 82 81 80 81 85 84 90 93 96 98 100 104 107 100 82 65 56 43 31 22 16 10 10 5 2 12 22 34 44 51 66 77 100 111 123 128 123 117 110 106 100
82 83 86 84 85 85 86 85 85 89 88 92 95 98 100 102 102 96 82 62 53 41 31 22 9 7 9 7 6 4 15 26 38 50 67 81 94 103 112 120 125 125 113 105 95
88 88 89 91 91 92 91 90 88 87 89 89 91 95 97 98 97 90 77 59 51 39 29 17 13 21 20 18 10 6 8 17 31 44 61 70 88 97 98 115 123 110 106 102 95
Wind_Direction
314 313 315 317 318 315 314 313 310 309 306 306 304 300 296 293 287 283 281 276 271 266 261 257 251 247 242 239 239 238 237 231 225 224 224 223 222 220 219 218 219 218 221 214 218
316 316 319 320 318 317 316 315 315 313 312 310 309 309 303 297 292 289 284 279 274 267 260 253 250 246 242 239 236 235 233 231 224 222 221 223 220 221 219 218 219 218 223 215 220
319 320 321 321 319 318 319 317 318 319 316 315 315 312 308 302 298 295 291 285 277 269 260 251 244 242 239 236 234 232 231 229 225 222 221 222 220 221 220 219 217 218 219 218 219
321 322 322 323 322 322 322 322 323 322 322 321 321 319 314 309 305 300 296 288 278 269 260 252 243 238 235 233 232 229 227 228 225 223 220 222 221 222 222 219 215 218 215 219 221
323 323 324 324 325 326 325 328 328 327 329 329 329 326 322 316 313 307 299 291 282 270 260 253 246 238 233 229 229 227 224 223 224 222 218 220 223 221 222 220 219 217 217 217 222
326 325 324 327 328 328 331 332 333 334 335 337 337 334 328 323 319 314 307 298 283 271 260 250 244 238 231 228 226 226 224 220 221 222 216 216 219 221 221 223 222 216 216 216 219
327 326 328 329 329 332 335 335 337 339 340 342 343 344 337 331 328 326 317 309 296 281 265 253 244 237 231 225 223 222 222 220 218 220 216 217 217 218 221 222 220 218 215 217 218
328 328 331 329 331 334 337 338 339 341 342 345 347 349 345 339 338 335 325 319 307 292 276 261 248 241 231 226 221 219 219 218 216 217 217 216 215 217 222 222 220 220 216 215 218
330 330 333 331 332 337 339 339 341 343 346 348 352 353 350 346 344 338 332 326 315 299 276 268 257 245 234 228 223 217 216 215 214 215 217 214 213 217 220 222 221 220 220 216 218
331 331 333 332 334 338 340 341 343 345 347 351 354 357 356 351 348 342 339 333 325 307 288 274 268 250 238 229 223 217 214 213 212 211 215 215 212 215 215 219 221 220 219 217 217
330 332 332 333 336 339 340 341 344 347 348 352 356 358 0 355 351 348 343 339 334 319 299 278 268 253 237 229 222 216 214 212 209 210 212 213 212 214 215 218 218 222 221 220 218
330 332 333 334 338 339 341 342 347 347 351 354 356 357 1 356 355 350 346 344 339 331 310 292 272 253 237 225 218 215 212 211 208 208 210 213 211 212 214 214 217 220 221 220 218
329 331 333 335 339 340 341 344 346 348 351 354 355 358 1 359 355 351 350 348 341 338 327 306 282 258 238 224 216 214 211 209 207 206 209 212 212 212 212 213 215 217 220 220 220
329 331 334 337 339 340 342 345 346 348 352 352 355 358 359 1 356 353 351 348 344 336 336 320 297 271 242 222 215 211 209 207 206 206 207 210 211 210 213 214 215 217 220 223 222
329 332 336 338 340 342 342 346 347 348 350 352 356 356 359 0 358 353 352 350 345 337 330 327 302 279 248 225 215 211 208 205 205 203 205 208 209 207 209 212 213 215 217 220 222
330 333 336 339 341 342 343 346 345 349 348 351 354 355 357 0 358 355 353 352 346 338 327 324 307 278 251 228 214 211 208 205 203 203 203 205 207 209 211 210 209 213 215 217 220
331 334 336 339 342 343 343 344 346 347 348 351 352 354 357 359 358 354 354 352 349 343 331 324 312 280 259 230 218 206 208 206 203 204 203 204 206 208 209 209 211 212 214 216 219
330 333 335 338 341 343 343 341 345 346 348 349 351 353 356 358 359 354 354 352 353 346 334 325 316 279 260 232 218 215 205 206 203 203 204 203 204 207 208 206 207 210 212 215 219
328 330 331 335 339 342 341 343 342 344 346 348 349 352 353 357 358 356 354 353 352 347 337 325 313 286 251 238 218 213 209 205 206 201 203 202 201 208 206 205 210 209 211 215 217
326 328 329 333 337 338 341 339 340 342 344 346 347 350 353 354 357 356 353 353 355 353 344 330 313 294 246 231 220 211 215 208 203 204 203 204 200 206 203 205 206 210 211 215 219
324 325 326 330 332 336 337 338 338 339 342 344 346 348 352 353 356 355 352 353 356 351 347 341 324 301 251 233 220 209 207 210 206 204 204 203 202 205 201 204 207 207 211 215 217
322 323 324 326 330 332 335 336 337 337 340 342 344 346 349 352 353 355 351 352 357 352 347 347 339 330 288 230 220 211 206 205 207 206 205 206 202 205 203 204 205 207 209 214 216
319 321 322 324 326 328 330 332 333 335 337 339 342 345 347 349 351 354 351 353 354 354 349 352 348 342 317 243 218 204 204 205 202 209 204 202 203 205 203 204 205 207 209 212 211
315 316 318 319 320 323 326 328 331 333 335 336 339 343 345 347 348 352 352 353 352 355 357 360 360 11 22 324 224 211 200 199 202 203 205 202 202 204 204 203 205 206 209 209 213
312 313 314 316 318 320 323 325 328 330 332 335 337 339 342 345 347 350 350 351 354 355 358 4 353 35 58 50 243 211 206 203 204 197 196 199 200 204 205 205 202 206 208 209 211
311 313 313 315 317 318 320 322 324 327 330 332 335 337 340 342 344 348 349 349 355 357 358 360 11 54 78 100 100 223 211 204 202 199 191 193 198 202 205 205 208 208 203 209 209
308 309 310 312 313 314 316 318 321 324 326 329 331 333 337 341 343 347 346 347 353 358 9 19 64 68 58 66 71 150 174 199 197 194 194 188 195 201 203 200 207 210 209 207 210
Height
10850 10845 10841 10836 10830 10824 10819 10814 10808 10802 10797 10792 10784 10777 10767 10759 10749 10743 10736 10733 10730 10727 10729 10733 10738 10742 10749 10756 10763 10770 10784 10805 10813 10818 10820 10824 10835 10844 10851 10862 10874 10883 10879 10911 10910
10843 10838 10833 10828 10821 10816 10810 10805 10799 10793 10787 10780 10771 10760 10748 10734 10724 10715 10708 10699 10695 10690 10690 10695 10698 10709 10719 10727 10737 10748 10765 10782 10787 10792 10799 10802 10816 10824 10835 10850 10861 10875 10872 10901 10891
10836 10831 10826 10820 10813 10806 10800 10795 10789 10782 10774 10765 10755 10742 10725 10707 10697 10682 10674 10664 10654 10649 10648 10655 10661 10669 10682 10695 10707 10724 10742 10753 10764 10768 10774 10787 10800 10808 10821 10832 10851 10854 10866 10873 10880
10829 10823 10818 10812 10805 10797 10791 10785 10778 10770 10760 10749 10736 10719 10700 10681 10669 10651 10635 10626 10617 10611 10608 10612 10620 10632 10644 10660 10672 10692 10716 10726 10736 10747 10761 10778 10782 10793 10804 10818 10827 10831 10848 10863 10875
10823 10816 10810 10803 10797 10789 10781 10774 10766 10757 10746 10733 10716 10696 10676 10658 10641 10621 10607 10594 10587 10582 10580 10581 10584 10594 10607 10623 10638 10663 10683 10697 10708 10723 10751 10759 10768 10778 10785 10799 10804 10828 10853 10862 10858
10816 10809 10801 10794 10788 10781 10772 10764 10755 10745 10732 10717 10698 10675 10653 10634 10615 10599 10583 10571 10562 10557 10555 10554 10557 10563 10575 10589 10607 10626 10649 10667 10686 10705 10725 10738 10746 10754 10774 10784 10797 10824 10833 10839 10845
10808 10801 10794 10786 10779 10772 10764 10754 10744 10733 10719 10703 10681 10655 10632 10612 10595 10579 10563 10551 10541 10537 10535 10532 10532 10537 10546 10554 10572 10597 10616 10642 10667 10685 10705 10713 10720 10750 10756 10757 10786 10806 10813 10822 10836
10801 10793 10786 10778 10771 10764 10755 10745 10734 10722 10708 10689 10666 10640 10614 10592 10576 10563 10549 10537 10527 10519 10513 10511 10512 10515 10522 10533 10544 10562 10585 10614 10641 10658 10680 10688 10724 10735 10732 10748 10768 10783 10801 10815 10824
10794 10786 10779 10770 10763 10755 10746 10736 10724 10711 10694 10676 10654 10627 10601 10579 10561 10548 10535 10525 10515 10506 10497 10492 10493 10495 10504 10511 10521 10539 10559 10582 10611 10643 10653 10673 10704 10705 10716 10729 10751 10770 10786 10802 10810
10788 10780 10771 10763 10756 10747 10736 10725 10710 10695 10681 10662 10640 10619 10595 10571 10552 10535 10521 10511 10502 10491 10485 10477 10477 10480 10486 10493 10506 10516 10535 10556 10589 10614 10628 10661 10671 10675 10692 10710 10737 10746 10762 10780 10794
10781 10773 10764 10756 10748 10738 10729 10719 10708 10695 10673 10650 10626 10606 10582 10562 10539 10525 10511 10497 10489 10479 10471 10465 10464 10464 10468 10477 10485 10504 10515 10534 10559 10587 10607 10630 10650 10663 10681 10702 10716 10733 10755 10772 10788
10774 10766 10757 10749 10740 10730 10720 10706 10693 10677 10659 10639 10619 10598 10573 10551 10535 10517 10502 10487 10476 10468 10459 10455 10452 10452 10455 10460 10468 10479 10494 10515 10537 10563 10584 10605 10626 10648 10661 10686 10708 10726 10737 10753 10772
10768 10760 10752 10743 10734 10721 10710 10697 10685 10669 10652 10630 10614 10589 10568 10547 10525 10510 10493 10479 10466 10456 10451 10445 10443 10443 10444 10447 10454 10465 10481 10498 10521 10539 10575 10595 10618 10632 10653 10677 10692 10705 10722 10740 10761
10762 10753 10746 10738 10728 10715 10704 10690 10675 10659 10644 10632 10610 10589 10567 10545 10525 10505 10489 10475 10463 10450 10444 10438 10435 10435 10435 10438 10444 10454 10467 10485 10509 10529 10559 10578 10608 10633 10648 10671 10683 10703 10721 10737 10753
10755 10748 10740 10731 10721 10708 10694 10682 10666 10650 10632 10618 10600 10576 10561 10539 10519 10500 10485 10471 10457 10445 10437 10434 10429 10428 10429 10432 10437 10446 10461 10476 10492 10513 10531 10559 10586 10616 10623 10650 10671 10692 10711 10724 10740
10748 10742 10734 10725 10715 10703 10688 10676 10660 10645 10629 10609 10594 10574 10553 10536 10517 10500 10483 10467 10454 10443 10433 10426 10424 10421 10422 10425 10431 10442 10452 10466 10482 10497 10518 10552 10579 10599 10611 10640 10658 10680 10697 10711 10725
10743 10735 10726 10716 10706 10694 10682 10669 10657 10640 10621 10604 10586 10570 10551 10532 10512 10494 10477 10465 10453 10439 10428 10421 10418 10415 10416 10419 10425 10432 10444 10455 10471 10487 10518 10544 10568 10585 10607 10636 10659 10675 10690 10699 10708
10736 10728 10720 10710 10700 10688 10674 10664 10647 10634 10618 10599 10584 10566 10553 10531 10511 10490 10473 10460 10446 10434 10423 10416 10412 10410 10410 10412 10417 10426 10434 10447 10462 10487 10510 10527 10549 10560 10598 10612 10639 10657 10674 10682 10695
10730 10722 10712 10704 10692 10679 10669 10654 10643 10630 10618 10603 10582 10565 10544 10528 10510 10489 10474 10457 10443 10430 10420 10411 10407 10405 10405 10407 10411 10417 10428 10435 10452 10471 10481 10500 10540 10545 10585 10614 10634 10643 10654 10667 10684
10722 10713 10704 10694 10685 10674 10661 10651 10637 10623 10611 10594 10580 10566 10543 10524 10505 10487 10469 10455 10442 10426 10416 10408 10403 10401 10400 10401 10404 10411 10418 10429 10445 10459 10476 10500 10529 10535 10575 10595 10613 10632 10648 10663 10679
10715 10707 10697 10688 10679 10666 10655 10643 10628 10615 10604 10589 10572 10557 10541 10521 10503 10483 10465 10453 10437 10423 10413 10406 10399 10397 10396 10396 10399 10406 10415 10428 10436 10448 10464 10491 10518 10531 10565 10585 10603 10620 10642 10655 10675
10704 10694 10687 10678 10667 10660 10650 10637 10623 10608 10594 10583 10569 10552 10539 10526 10500 10481 10464 10448 10435 10423 10412 10404 10398 10395 10394 10394 10397 10403 10409 10416 10429 10445 10464 10488 10500 10524 10557 10573 10592 10613 10633 10644 10680
10696 10690 10679 10668 10661 10650 10640 10631 10620 10605 10588 10578 10564 10549 10526 10514 10507 10487 10467 10449 10433 10422 10413 10403 10397 10392 10392 10393 10395 10399 10404 10413 10424 10432 10446 10460 10498 10517 10540 10560 10585 10608 10625 10640 10685
10687 10679 10669 10661 10658 10647 10636 10622 10616 10599 10585 10568 10560 10547 10533 10512 10494 10482 10466 10451 10435 10423 10413 10405 10400 10395 10392 10392 10394 10397 10401 10407 10412 10423 10446 10471 10477 10502 10520 10549 10577 10593 10610 10646 10664
10676 10669 10660 10650 10640 10633 10625 10616 10603 10599 10581 10569 10554 10542 10531 10517 10496 10483 10468 10453 10440 10428 10419 10410 10401 10396 10392 10391 10391 10394 10397 10402 10408 10420 10434 10458 10466 10484 10510 10535 10559 10585 10611 10629 10651
10660 10654 10644 10640 10628 10621 10614 10607 10599 10585 10578 10563 10549 10535 10524 10512 10497 10481 10465 10455 10443 10430 10422 10413 10405 10399 10395 10392 10390 10392 10395 10399 10407 10415 10425 10434 10456 10477 10504 10546 10553 10558 10597 10619 10651
10645 10642 10633 10626 10617 10610 10602 10594 10589 10583 10570 10562 10550 10536 10523 10510 10493 10480 10465 10453 10444 10434 10425 10416 10408 10403 10400 10397 10395 10394 10395 10399 10404 10412 10423 10444 10458 10473 10504 10528 10543 10590 10609 10624 10642